#timestamp,LO_Frequency,Hit,StdDev 
1566687615.2,286047001.4,N
1566687665.0,286047003.7,E
1566687675.9,286047000.9,N
1566687695.7,286046999.4,P
1566687715.5,286046996.8,P
1566687735.4,286046999.5,N
1566687755.2,286046999.2,N
1566687775.1,286046999.1,N
1566687776.0,286046999.1,N
1566687795.8,286046998.5,N
1566687815.6,286046998.2,N
1566687835.5,286046998.2,N
1566687855.3,286046998.1,N
1566687875.1,286046999.9,N
1566687895.9,286046999.9,N
1566687915.7,286047000.5,N
1566687935.6,286046998.5,N
1566687955.4,286046999.3,N
1566687975.2,286046996.8,Y
1566687995.1,286046997.2,P
1566687996.0,286046997.2,P
1566688015.8,286046998.8,N
1566688035.6,286046998.6,N
1566688055.5,286046998.4,N
1566688075.3,286046998.2,N
1566688095.2,286047002.8,Y
1566688115.9,286047002.0,P
1566688135.7,286046999.7,N
1566688155.6,286047002.7,N
1566688175.4,286046999.7,N
1566688195.3,286047002.0,N
1566688215.1,286047006.0,Y
1566688216.0,286047006.0,P
1566688235.8,286047003.0,N
1566688255.7,286047001.3,N
1566688275.5,286047002.5,N
1566688295.3,286047002.3,N
1566688315.2,286047001.5,N
1566688335.0,286047002.5,N
1566688335.9,286047002.5,N
1566688355.8,286047003.9,N
1566688375.6,286047000.1,N
1566688395.4,286047001.7,N
1566688415.3,286047004.1,N
1566688435.1,286047002.0,N
1566688455.8,286047004.1,N
1566688475.7,286047005.5,Y
1566688495.5,286047002.2,P
1566688515.4,286046999.7,N
1566688535.2,286047002.3,N
1566688555.0,286047000.0,N
1566688555.9,286047000.0,N
1566688575.8,286047000.7,N
1566688595.6,286047001.1,N
1566688615.5,286047001.2,N
1566688635.3,286047001.0,N
1566688655.1,286047001.9,N
1566688675.9,286046998.2,N
1566688695.7,286046998.5,N
1566688715.5,286047000.8,N
1566688735.4,286047000.6,N
1566688755.2,286047000.6,N
1566688775.1,286047001.1,N
1566688806.0,286047002.8,E
1566688815.0,286047000.2,N
1566688815.9,286047000.2,P
1566688835.8,286046999.2,P
1566688855.6,286046997.0,Y
1566688875.4,286046997.2,P
1566688895.3,286046996.5,N
1566688915.1,286046998.3,N
1566688935.8,286046999.0,N
1566688955.7,286046998.7,N
1566688975.5,286046999.4,N
1566688995.4,286046996.6,Y
1566689015.2,286047001.2,P
1566689035.0,286046996.6,N
1566689035.9,286046996.6,N
1566689055.8,286046997.1,N
1566689075.6,286046998.7,N
1566689095.4,286046999.6,N
1566689115.3,286046998.9,N
1566689135.1,286047000.5,N
1566689155.9,286046998.2,N
1566689175.7,286046997.8,N
1566689195.5,286046997.9,N
1566689215.4,286046995.0,Y
1566689235.2,286046997.3,P
1566689255.1,286046996.9,P
1566689256.0,286046996.9,P
1566689275.8,286046999.4,N
1566689295.6,286046999.4,N
1566689315.5,286046999.3,N
1566689335.3,286047001.1,N
1566689355.1,286046998.3,N
1566689375.9,286047002.8,N
1566689395.7,286046998.3,N
1566689415.6,286046999.3,N
1566689435.4,286046996.7,N
1566689455.2,286046996.7,N
1566689475.1,286046999.3,N
1566689476.0,286046999.3,N
1566689495.8,286046999.4,N
1566689515.6,286046999.4,N
1566689535.5,286046997.8,N
1566689555.3,286046999.5,N
1566689575.2,286046999.5,N
1566689595.9,286046999.6,N
1566689615.7,286046996.9,N
1566689635.6,286046996.7,N
1566689655.4,286046997.4,N
1566689675.2,286046997.1,N
1566689695.1,286046997.3,N
1566689696.0,286046997.3,N
1566689715.8,286046995.5,Y
1566689735.7,286046996.6,P
1566689755.5,286046997.7,N
1566689775.3,286046997.3,P
1566689795.2,286046997.9,Y
1566689815.0,286047000.0,P
1566689815.9,286047000.0,N
1566689835.8,286047002.4,N
1566689855.6,286047000.9,N
1566689875.4,286047000.7,N
1566689895.3,286046999.4,N
1566689915.1,286046999.3,N
1566689935.8,286046998.3,N
1566689955.7,286046998.2,N
1566689975.5,286046998.8,N
1566689995.4,286046999.6,N
1566690015.2,286046999.1,N
1566690035.0,286046997.0,N
1566690035.9,286046997.0,N
1566690055.8,286046996.6,N
1566690075.6,286046996.5,N
1566690095.4,286046998.1,N
1566690115.3,286046998.1,N
1566690135.1,286047000.9,N
1566690155.9,286047000.9,N
1566690175.7,286046998.8,N
1566690195.5,286046998.4,N
1566690215.4,286047000.8,N
1566690235.2,286047002.1,N
1566690255.0,286047002.1,N
1566690255.9,286047002.1,N
1566690275.8,286047000.6,N
1566690295.6,286047000.9,N
1566690315.5,286046999.9,N
1566690335.3,286047000.5,N
1566690355.1,286047000.1,N
1566690375.9,286047000.9,N
1566690395.7,286046998.6,N
1566690415.5,286046998.8,N
1566690435.4,286046997.3,N
1566690455.2,286046998.3,N
1566690475.1,286046999.0,N
1566690476.0,286046999.0,N
1566690495.8,286046998.6,N
1566690515.6,286046999.0,N
1566690535.5,286046997.9,N
1566690555.3,286046996.9,N
1566690575.1,286046999.4,N
1566690595.9,286046996.6,N
1566690615.7,286046998.6,N
1566690635.6,286046998.1,N
1566690655.4,286047000.3,N
1566690675.2,286046996.9,N
1566690695.1,286046999.0,N
1566690696.0,286046999.0,N
1566690715.8,286046998.6,N
1566690735.7,286046998.5,N
1566690755.5,286046998.5,N
1566690775.3,286046996.6,N
1566690795.2,286046997.4,N
1566690815.9,286046998.9,N
1566690835.7,286046999.2,N
1566690855.6,286046999.6,N
1566690875.4,286046999.6,N
1566690895.3,286046996.7,Y
1566690915.1,286046999.6,P
1566690916.0,286046999.6,N
1566690935.8,286046998.6,P
1566690985.7,286047001.1,E
1566690995.6,286046998.3,N
1566691015.5,286047000.8,P
1566691035.3,286046996.6,N
1566691055.1,286046996.7,N
1566691075.9,286046995.0,N
1566691095.7,286046999.5,N
1566691115.6,286046996.9,N
1566691135.4,286046997.4,N
1566691155.2,286046998.4,N
1566691175.1,286047000.7,N
1566691176.0,286047000.7,N
1566691195.8,286046999.7,N
